Change the Weather History Date:

Sunday, March 23, 2014

  Actual Average (KGPZ) Record (KGPZ)
Temperature  
Mean Temperature -2 °F -  
Max Temperature 17 °F 40 °F 67 °F (1939)
Min Temperature -20 °F 16 °F -20 °F (1974)
Degree Days  
Heating Degree Days 66    
Moisture  
Dew Point -9 °F    
Average Humidity 64    
Maximum Humidity 85    
Minimum Humidity 42    
Precipitation  
Precipitation 0.00 in - - ()
Sea Level Pressure  
Sea Level Pressure 30.36 in    
Wind  
Wind Speed 2 mph (West)    
Max Wind Speed 10 mph    
Max Gust Speed 21 mph    
Visibility 10 miles    
Events      
Averages and records for this station are not official NWS values.
T = Trace of Precipitation, MM = Missing Value Source: NWS Daily Summary

Daily Weather History Graph

Daily Weather History Graph

Search for Another Location

Airport or City:

Trip Planner

Search our weather history database for the weather conditions in past years. The results will help you decide how hot, cold, wet, or windy it might be!

Date:

Astronomy

Mar. 23, 2014 Rise Set
Actual Time 7:11 AM CDT 7:31 PM CDT
Civil Twilight 6:40 AM CDT 8:02 PM CDT
Nautical Twilight 6:04 AM CDT 8:39 PM CDT
Astronomical Twilight 5:26 AM CDT 9:17 PM CDT
Moon 2:10 AM CDT (3/23) 11:32 AM CDT (3/23)
Length of Visible Light 13h 22m
Length of Day
12h 20m
Waning Gibbous, 54% of the Moon is Illuminated
Mar 23
Waning Gibbous
Mar 23
Last Quarter
Mar 30
New
Apr 7
First Quarter
Apr 15
Full

Hourly Weather History & Observations

Time (CDT) Temp. Windchill Dew Point Humidity Pressure Visibility Wind Dir Wind Speed Gust Speed Precip Events Conditions
12:13 AM -2.2 °F - -7.6 °F 78% 30.42 in 10.0 mi Calm Calm - N/A   Clear
12:33 AM -2.2 °F - -7.6 °F 78% 30.42 in 10.0 mi Calm Calm - N/A   Clear
12:53 AM -2.2 °F - -7.6 °F 78% 30.42 in 10.0 mi Calm Calm - N/A   Clear
1:13 AM -2.2 °F - -7.6 °F 78% 30.42 in 10.0 mi Calm Calm - N/A   Clear
1:33 AM -4.0 °F - -9.4 °F 78% 30.42 in 10.0 mi Calm Calm - N/A   Clear
1:53 AM -5.8 °F - -9.4 °F 84% 30.42 in 10.0 mi Calm Calm - N/A   Clear
2:13 AM -7.6 °F - -11.2 °F 84% 30.42 in 10.0 mi Calm Calm - N/A   Clear
2:33 AM -9.4 °F - -13.0 °F 84% 30.42 in 10.0 mi Calm Calm - N/A   Clear
2:53 AM -11.2 °F - -16.6 °F 77% 30.41 in 10.0 mi Calm Calm - N/A   Clear
3:13 AM -11.2 °F - -16.6 °F 77% 30.41 in 10.0 mi Calm Calm - N/A   Clear
3:33 AM -13.0 °F - -18.4 °F 77% 30.41 in 10.0 mi Calm Calm - N/A   Clear
3:53 AM -14.8 °F - -18.4 °F 84% 30.41 in 10.0 mi Calm Calm - N/A   Clear
4:13 AM -16.6 °F - -20.2 °F 84% 30.41 in 10.0 mi Calm Calm - N/A   Clear
4:33 AM -16.6 °F - -22.0 °F 76% 30.41 in 10.0 mi Calm Calm - N/A   Clear
4:53 AM -18.4 °F - -23.8 °F 76% 30.41 in 10.0 mi Calm Calm - N/A   Clear
5:13 AM -18.4 °F - -23.8 °F 76% 30.41 in 10.0 mi Calm Calm - N/A   Clear
5:33 AM -18.4 °F - -23.8 °F 76% 30.41 in 10.0 mi Calm Calm - N/A   Clear
5:53 AM -18.4 °F - -25.6 °F 70% 30.40 in 10.0 mi Calm Calm - N/A   Clear
6:13 AM -18.4 °F - -25.6 °F 70% 30.41 in 10.0 mi Calm Calm - N/A   Clear
6:33 AM -20.2 °F - -27.4 °F 69% 30.41 in 10.0 mi Calm Calm - N/A   Clear
6:53 AM -20.2 °F - -27.4 °F 69% 30.41 in 10.0 mi Calm Calm - N/A   Clear
7:13 AM -20.2 °F - -27.4 °F 69% 30.41 in 10.0 mi Calm Calm - N/A   Clear
7:33 AM -20.2 °F - -27.4 °F 69% 30.41 in 10.0 mi Calm Calm - N/A   Clear
7:53 AM -18.4 °F - -25.6 °F 70% 30.41 in 10.0 mi Calm Calm - N/A   Clear
8:13 AM -14.8 °F - -20.2 °F 77% 30.40 in 10.0 mi Calm Calm - N/A   Clear
8:33 AM -13.0 °F - -18.4 °F 77% 30.40 in 10.0 mi Calm Calm - N/A   Clear
8:53 AM -5.8 °F - -9.4 °F 84% 30.40 in 10.0 mi Calm Calm - N/A   Clear
9:13 AM -2.2 °F - -7.6 °F 78% 30.40 in 10.0 mi Calm Calm - N/A   Clear
9:33 AM -0.4 °F - -5.8 °F 78% 30.40 in 10.0 mi Calm Calm - N/A   Clear
9:53 AM 6.8 °F -0.1 °F -2.2 °F 67% 30.40 in 10.0 mi West 3.5 mph - N/A   Clear
10:13 AM 6.8 °F -4.8 °F -4.0 °F 61% 30.40 in 10.0 mi WSW 6.9 mph - N/A   Clear
10:33 AM 6.8 °F -7.8 °F -4.0 °F 61% 30.40 in 10.0 mi SW 10.4 mph - N/A   Clear
10:53 AM 8.6 °F -2.6 °F -2.2 °F 62% 30.39 in 10.0 mi WSW 6.9 mph - N/A   Clear
11:13 AM 10.4 °F 2.2 °F -2.2 °F 57% 30.39 in 10.0 mi WSW 4.6 mph - N/A   Clear
11:33 AM 10.4 °F -0.4 °F -2.2 °F 57% 30.39 in 10.0 mi WSW 6.9 mph - N/A   Clear
11:53 AM 12.2 °F 1.7 °F -2.2 °F 53% 30.38 in 10.0 mi WSW 6.9 mph - N/A   Clear
12:13 PM 12.2 °F -1.0 °F -2.2 °F 53% 30.38 in 10.0 mi WSW 10.4 mph 16.1 mph N/A   Clear
12:33 PM 14.0 °F 6.5 °F -2.2 °F 49% 30.38 in 10.0 mi WNW 4.6 mph - N/A   Clear
12:53 PM 15.8 °F 7.2 °F -0.4 °F 49% 30.37 in 10.0 mi West 5.8 mph - N/A   Clear
1:13 PM 15.8 °F 6.1 °F -2.2 °F 45% 30.36 in 10.0 mi WSW 6.9 mph - N/A   Clear
1:33 PM 17.6 °F 7.3 °F -2.2 °F 42% 30.36 in 10.0 mi NW 8.1 mph - N/A   Clear
1:53 PM 17.6 °F 7.3 °F -2.2 °F 42% 30.35 in 10.0 mi West 8.1 mph - N/A   Clear
2:13 PM 17.6 °F 9.3 °F -2.2 °F 42% 30.34 in 10.0 mi WSW 5.8 mph - N/A   Clear
2:33 PM 17.6 °F 12.3 °F -2.2 °F 42% 30.34 in 10.0 mi WNW 3.5 mph - N/A   Clear
2:53 PM 17.6 °F 5.7 °F -0.4 °F 45% 30.34 in 10.0 mi SW 10.4 mph - N/A   Clear
3:13 PM 17.6 °F 8.2 °F -0.4 °F 45% 30.33 in 10.0 mi WSW 6.9 mph - N/A   Clear
3:33 PM 17.6 °F 6.4 °F -0.4 °F 45% 30.33 in 10.0 mi WSW 9.2 mph - N/A   Clear
3:53 PM 15.8 °F 3.4 °F -0.4 °F 49% 30.32 in 10.0 mi WSW 10.4 mph 20.7 mph N/A   Clear
4:13 PM 17.6 °F 7.3 °F -0.4 °F 45% 30.31 in 10.0 mi WSW 8.1 mph - N/A   Clear
4:33 PM 17.6 °F 10.7 °F -2.2 °F 42% 30.31 in 10.0 mi West 4.6 mph - N/A   Clear
4:53 PM 17.6 °F 7.3 °F -0.4 °F 45% 30.30 in 10.0 mi WNW 8.1 mph - N/A   Clear
5:13 PM 17.6 °F 12.3 °F -0.4 °F 45% 30.30 in 10.0 mi WNW 3.5 mph - N/A   Clear
5:33 PM 17.6 °F 12.3 °F -2.2 °F 42% 30.29 in 10.0 mi West 3.5 mph - N/A   Clear
5:53 PM 17.6 °F 9.3 °F -2.2 °F 42% 30.29 in 10.0 mi West 5.8 mph - N/A   Clear
6:13 PM 17.6 °F 10.7 °F -2.2 °F 42% 30.29 in 10.0 mi West 4.6 mph - N/A   Clear
6:33 PM 15.8 °F 6.1 °F -2.2 °F 45% 30.28 in 10.0 mi West 6.9 mph - N/A   Clear
6:53 PM 15.8 °F 8.6 °F -2.2 °F 45% 30.28 in 10.0 mi West 4.6 mph - N/A   Clear
7:13 PM 14.0 °F 8.2 °F -2.2 °F 49% 30.28 in 10.0 mi West 3.5 mph - N/A   Clear
7:33 PM 12.2 °F 6.1 °F -2.2 °F 53% 30.28 in 10.0 mi West 3.5 mph - N/A   Clear
7:53 PM 12.2 °F 6.1 °F -2.2 °F 53% 30.28 in 10.0 mi WSW 3.5 mph - N/A   Clear
8:13 PM 10.4 °F - -2.2 °F 57% 30.28 in 10.0 mi Calm Calm - N/A   Clear
8:33 PM 6.8 °F - -2.2 °F 67% 30.28 in 10.0 mi Calm Calm - N/A   Clear
8:53 PM 3.2 °F - -5.8 °F 66% 30.28 in 10.0 mi Calm Calm - N/A   Clear
9:13 PM 1.4 °F - -5.8 °F 72% 30.28 in 10.0 mi Calm Calm - N/A   Clear
9:33 PM -0.4 °F - -5.8 °F 78% 30.28 in 10.0 mi Calm Calm - N/A   Clear
9:53 PM -0.4 °F - -5.8 °F 78% 30.28 in 10.0 mi Calm Calm - N/A   Clear
10:13 PM -4.0 °F - -7.6 °F 85% 30.27 in 10.0 mi Calm Calm - N/A   Clear
10:33 PM -4.0 °F - -9.4 °F 78% 30.27 in 10.0 mi Calm Calm - N/A   Clear
10:53 PM -5.8 °F - -11.2 °F 77% 30.26 in 10.0 mi Calm Calm - N/A   Clear
11:13 PM -7.6 °F - -11.2 °F 84% 30.26 in 10.0 mi Calm Calm - N/A   Clear
11:33 PM -5.8 °F - -11.2 °F 77% 30.26 in 10.0 mi Calm Calm - N/A   Clear
11:53 PM -9.4 °F - -13.0 °F 84% 30.25 in 10.0 mi Calm Calm - N/A   Clear